Location: Halfweg
(53.1000°N, 6.6000°E)
Time: 05:30:34
(UTC+00:00)

Cosmos 1898 Rocket - Pass Details

Date: 15 May 2026
Orbit: 750 x 778 km, 74.0° (Epoch: 6 June)

Event Time Altitude Azimuth Distance (km) Brightness Sun altitude
Rises 22:54:58 0° 330° (NNW) 3,217 8.0 -17.5°
Reaches altitude 10° 22:57:25 10° 324° (NW) 2,291 6.9 -17.5°
Maximum altitude 23:02:19 45° 254° (WSW) 1,036 4.1 -17.6°
Enters shadow 23:04:34 28° 200° (SSW) 1,395 4.3 -17.6°
